Wetterdaten: Woche 27.07.15 - 02.08.15 (KW31)
Datum Zeit Temperatur Luftfeuchte Luftdruck Niederschlag Windrichtung Sonnenschein Solar Wind
27.07.2015 00:00 12,8 C 94 % 1007,2 hPa 0,0 l/m W-SW 0,00 h 0 W/m 14,8 km/h (3 Bft)
27.07.2015 01:00 13,2 C 94 % 1006,6 hPa 0,6 l/m W-SW 0,00 h 0 W/m 18,8 km/h (3 Bft)
27.07.2015 02:00 13,2 C 96 % 1006,2 hPa 0,8 l/m W-SW 0,00 h 0 W/m 13,6 km/h (3 Bft)
27.07.2015 03:00 13,3 C 97 % 1005,8 hPa 0,2 l/m W-SW 0,00 h 0 W/m 15,6 km/h (3 Bft)
27.07.2015 04:00 13,6 C 97 % 1005,4 hPa 0,0 l/m SW 0,00 h 0 W/m 13,3 km/h (3 Bft)
27.07.2015 05:00 13,8 C 97 % 1005,4 hPa 0,0 l/m W-SW 0,00 h 5 W/m 16,9 km/h (3 Bft)
27.07.2015 06:00 13,7 C 96 % 1005,3 hPa 0,0 l/m SW 0,00 h 20 W/m 9,1 km/h (2 Bft)
27.07.2015 07:00 14,2 C 97 % 1005,4 hPa 0,0 l/m W-SW 0,17 h 90 W/m 8,5 km/h (2 Bft)
27.07.2015 08:00 15,5 C 92 % 1005,4 hPa 0,0 l/m SW 1,00 h 344 W/m 22,8 km/h (4 Bft)
27.07.2015 09:00 16,8 C 83 % 1005,8 hPa 0,0 l/m SW 0,75 h 457 W/m 30,6 km/h (5 Bft)
27.07.2015 10:00 18,1 C 77 % 1006,0 hPa 0,0 l/m W-SW 0,50 h 438 W/m 25,7 km/h (4 Bft)
27.07.2015 11:00 19,1 C 69 % 1005,9 hPa 0,0 l/m W-SW 0,58 h 541 W/m 31,7 km/h (5 Bft)
27.07.2015 12:00 20,1 C 63 % 1005,8 hPa 0,0 l/m W-SW 0,42 h 581 W/m 31,4 km/h (5 Bft)
27.07.2015 13:00 21,0 C 60 % 1005,4 hPa 0,0 l/m W-NW 0,67 h 766 W/m 30,0 km/h (5 Bft)
27.07.2015 14:00 22,2 C 54 % 1005,5 hPa 0,0 l/m W 0,83 h 900 W/m 37,1 km/h (5 Bft)
27.07.2015 15:00 22,2 C 51 % 1005,9 hPa 0,0 l/m W 0,58 h 599 W/m 43,2 km/h (6 Bft)
27.07.2015 16:00 21,9 C 49 % 1006,1 hPa 0,0 l/m W-NW 0,67 h 566 W/m 38,6 km/h (5 Bft)
27.07.2015 17:00 22,5 C 46 % 1006,5 hPa 0,0 l/m W 1,00 h 587 W/m 34,6 km/h (5 Bft)
27.07.2015 18:00 21,7 C 47 % 1006,6 hPa 0,0 l/m W 0,58 h 301 W/m 28,7 km/h (4 Bft)
27.07.2015 19:00 20,8 C 50 % 1006,8 hPa 0,0 l/m W-NW 0,75 h 182 W/m 23,0 km/h (4 Bft)
27.07.2015 20:00 19,2 C 56 % 1007,4 hPa 0,0 l/m W-NW 0,08 h 22 W/m 14,9 km/h (3 Bft)
27.07.2015 21:00 17,2 C 65 % 1007,8 hPa 0,0 l/m N 0,00 h 5 W/m 3,3 km/h (1 Bft)
27.07.2015 22:00 15,8 C 73 % 1008,0 hPa 0,0 l/m W-NW 0,00 h 0 W/m 2,9 km/h (1 Bft)
27.07.2015 23:00 15,5 C 73 % 1008,0 hPa 0,0 l/m W-SW 0,00 h 0 W/m 10,1 km/h (2 Bft)
28.07.2015 00:00 16,0 C 72 % 1007,9 hPa 0,0 l/m SW 0,00 h 0 W/m 11,8 km/h (2 Bft)
28.07.2015 01:00 15,7 C 74 % 1007,9 hPa 0,0 l/m SW 0,00 h 0 W/m 9,5 km/h (2 Bft)
28.07.2015 02:00 15,2 C 77 % 1007,6 hPa 0,0 l/m SW 0,00 h 0 W/m 8,4 km/h (2 Bft)
28.07.2015 03:00 15,6 C 75 % 1007,4 hPa 0,0 l/m W-SW 0,00 h 0 W/m 10,3 km/h (2 Bft)
28.07.2015 04:00 16,0 C 72 % 1007,1 hPa 0,0 l/m W-SW 0,00 h 0 W/m 14,2 km/h (3 Bft)
28.07.2015 05:00 15,9 C 72 % 1007,1 hPa 0,0 l/m W-SW 0,00 h 0 W/m 17,7 km/h (3 Bft)
28.07.2015 06:00 15,7 C 74 % 1007,3 hPa 0,0 l/m SW 0,00 h 22 W/m 16,6 km/h (3 Bft)
28.07.2015 07:00 15,9 C 75 % 1007,8 hPa 0,0 l/m W-SW 0,08 h 88 W/m 19,0 km/h (3 Bft)
28.07.2015 08:00 16,6 C 73 % 1008,0 hPa 0,0 l/m W 0,08 h 159 W/m 21,3 km/h (4 Bft)
28.07.2015 09:00 17,2 C 70 % 1008,2 hPa 0,0 l/m W 0,17 h 261 W/m 24,4 km/h (4 Bft)
28.07.2015 10:00 18,0 C 65 % 1008,4 hPa 0,0 l/m W 0,33 h 330 W/m 29,1 km/h (5 Bft)
28.07.2015 11:00 17,8 C 63 % 1008,6 hPa 0,0 l/m W-SW 0,08 h 244 W/m 27,5 km/h (4 Bft)
28.07.2015 12:00 17,5 C 64 % 1008,5 hPa 0,0 l/m W-SW 0,00 h 272 W/m 28,2 km/h (4 Bft)
28.07.2015 13:00 18,7 C 59 % 1008,1 hPa 0,0 l/m W 0,58 h 618 W/m 31,4 km/h (5 Bft)
28.07.2015 14:00 19,6 C 58 % 1007,8 hPa 0,0 l/m W 0,67 h 609 W/m 29,6 km/h (5 Bft)
28.07.2015 15:00 20,3 C 57 % 1007,5 hPa 0,0 l/m W 0,58 h 538 W/m 30,7 km/h (5 Bft)
28.07.2015 16:00 20,6 C 52 % 1007,3 hPa 0,0 l/m SW 0,67 h 484 W/m 28,8 km/h (5 Bft)
28.07.2015 17:00 20,2 C 52 % 1007,0 hPa 0,0 l/m W-SW 0,17 h 233 W/m 23,1 km/h (4 Bft)
28.07.2015 18:00 19,7 C 53 % 1007,1 hPa 0,0 l/m W 0,00 h 107 W/m 18,1 km/h (3 Bft)
28.07.2015 19:00 19,2 C 54 % 1007,2 hPa 0,0 l/m W 0,00 h 46 W/m 15,3 km/h (3 Bft)
28.07.2015 20:00 18,4 C 55 % 1008,0 hPa 0,0 l/m W-NW 0,00 h 11 W/m 12,1 km/h (2 Bft)
28.07.2015 21:00 17,4 C 58 % 1008,6 hPa 0,0 l/m W-NW 0,00 h 0 W/m 9,1 km/h (2 Bft)
28.07.2015 22:00 15,8 C 70 % 1009,3 hPa 0,0 l/m W-NW 0,00 h 0 W/m 2,8 km/h (1 Bft)
28.07.2015 23:00 14,0 C 85 % 1010,1 hPa 0,6 l/m W-NW 0,00 h 0 W/m 1,9 km/h (1 Bft)
29.07.2015 00:00 13,0 C 90 % 1010,6 hPa 0,4 l/m W-NW 0,00 h 0 W/m 5,1 km/h (1 Bft)
29.07.2015 01:00 12,7 C 92 % 1010,6 hPa 0,0 l/m W-NW 0,00 h 0 W/m 0,9 km/h (0 Bft)
29.07.2015 02:00 12,2 C 93 % 1010,8 hPa 0,4 l/m W-NW 0,00 h 0 W/m 2,0 km/h (1 Bft)
29.07.2015 03:00 12,0 C 95 % 1010,5 hPa 0,0 l/m W-NW 0,00 h 0 W/m 1,2 km/h (1 Bft)
29.07.2015 04:00 11,9 C 96 % 1010,1 hPa 0,0 l/m SW 0,00 h 0 W/m 7,6 km/h (2 Bft)
29.07.2015 05:00 11,9 C 96 % 1009,7 hPa 0,0 l/m SW 0,00 h 0 W/m 10,2 km/h (2 Bft)
29.07.2015 06:00 12,4 C 96 % 1009,6 hPa 0,0 l/m SW 0,00 h 11 W/m 17,2 km/h (3 Bft)
29.07.2015 07:00 12,9 C 96 % 1009,2 hPa 0,0 l/m SW 0,00 h 54 W/m 16,5 km/h (3 Bft)
29.07.2015 08:00 13,9 C 93 % 1008,8 hPa 0,0 l/m SW 0,00 h 102 W/m 10,2 km/h (2 Bft)
29.07.2015 09:00 14,8 C 90 % 1008,4 hPa 0,0 l/m SW 0,00 h 128 W/m 12,1 km/h (2 Bft)
29.07.2015 10:00 15,0 C 87 % 1008,0 hPa 0,2 l/m W 0,00 h 106 W/m 10,5 km/h (2 Bft)
29.07.2015 11:00 14,4 C 93 % 1008,1 hPa 1,4 l/m W 0,00 h 107 W/m 7,8 km/h (2 Bft)
29.07.2015 12:00 14,7 C 94 % 1007,8 hPa 0,8 l/m W-SW 0,00 h 209 W/m 15,4 km/h (3 Bft)
29.07.2015 13:00 15,1 C 94 % 1008,0 hPa 0,0 l/m W-SW 0,00 h 262 W/m 18,6 km/h (3 Bft)
29.07.2015 14:00 15,8 C 91 % 1008,1 hPa 0,0 l/m W-SW 0,00 h 209 W/m 20,9 km/h (4 Bft)
29.07.2015 15:00 16,6 C 88 % 1008,0 hPa 0,0 l/m W-SW 0,08 h 235 W/m 17,7 km/h (3 Bft)
29.07.2015 16:00 17,0 C 86 % 1008,4 hPa 0,0 l/m W 0,00 h 168 W/m 17,7 km/h (3 Bft)
29.07.2015 17:00 17,0 C 83 % 1009,0 hPa 0,0 l/m NW 0,00 h 90 W/m 15,7 km/h (3 Bft)
29.07.2015 18:00 16,0 C 82 % 1009,8 hPa 0,0 l/m N-NW 0,00 h 88 W/m 19,8 km/h (4 Bft)
29.07.2015 19:00 14,6 C 83 % 1010,7 hPa 0,0 l/m NW 0,00 h 64 W/m 15,4 km/h (3 Bft)
29.07.2015 20:00 14,0 C 81 % 1011,5 hPa 0,0 l/m W-NW 0,17 h 29 W/m 12,4 km/h (3 Bft)
29.07.2015 21:00 12,9 C 83 % 1012,5 hPa 0,0 l/m W-NW 0,00 h 8 W/m 8,7 km/h (2 Bft)
29.07.2015 22:00 11,6 C 86 % 1013,2 hPa 0,0 l/m W-NW 0,00 h 0 W/m 2,9 km/h (1 Bft)
29.07.2015 23:00 11,1 C 87 % 1013,8 hPa 0,0 l/m W 0,00 h 0 W/m 3,6 km/h (1 Bft)
30.07.2015 00:00 9,9 C 91 % 1014,0 hPa 0,0 l/m N 0,00 h 0 W/m 0,0 km/h (0 Bft)
30.07.2015 01:00 8,7 C 94 % 1014,2 hPa 0,0 l/m N 0,00 h 0 W/m 0,0 km/h (0 Bft)
30.07.2015 02:00 7,8 C 96 % 1014,2 hPa 0,0 l/m N 0,00 h 0 W/m 0,0 km/h (0 Bft)
30.07.2015 03:00 7,2 C 96 % 1014,1 hPa 0,0 l/m N 0,00 h 0 W/m 0,0 km/h (0 Bft)
30.07.2015 04:00 7,0 C 97 % 1013,9 hPa 0,0 l/m N 0,00 h 0 W/m 0,0 km/h (0 Bft)
30.07.2015 05:00 6,6 C 97 % 1014,0 hPa 0,0 l/m N 0,00 h 5 W/m 0,0 km/h (0 Bft)
30.07.2015 06:00 6,4 C 98 % 1014,3 hPa 0,0 l/m N 0,00 h 24 W/m 0,0 km/h (0 Bft)
30.07.2015 07:00 8,2 C 97 % 1014,5 hPa 0,0 l/m N 0,33 h 120 W/m 0,0 km/h (0 Bft)
30.07.2015 08:00 10,7 C 95 % 1014,6 hPa 0,0 l/m N 0,17 h 184 W/m 0,0 km/h (0 Bft)
30.07.2015 09:00 14,2 C 82 % 1014,6 hPa 0,0 l/m W 0,75 h 413 W/m 0,0 km/h (0 Bft)
30.07.2015 10:00 16,0 C 58 % 1014,6 hPa 0,0 l/m W-SW 0,58 h 426 W/m 10,3 km/h (2 Bft)
30.07.2015 11:00 16,1 C 59 % 1014,7 hPa 0,0 l/m W-SW 0,33 h 442 W/m 8,6 km/h (2 Bft)
30.07.2015 12:00 17,2 C 55 % 1014,5 hPa 0,0 l/m S-SW 0,58 h 655 W/m 15,0 km/h (3 Bft)
30.07.2015 13:00 19,0 C 46 % 1014,1 hPa 0,0 l/m W-SW 1,00 h 962 W/m 15,2 km/h (3 Bft)
30.07.2015 14:00 19,6 C 45 % 1013,9 hPa 0,0 l/m W-NW 0,58 h 611 W/m 9,5 km/h (2 Bft)
30.07.2015 15:00 19,9 C 44 % 1013,6 hPa 0,0 l/m W-NW 0,42 h 486 W/m 11,0 km/h (2 Bft)
30.07.2015 16:00 20,1 C 45 % 1013,4 hPa 0,0 l/m W 0,42 h 417 W/m 10,1 km/h (2 Bft)
30.07.2015 17:00 19,5 C 45 % 1013,4 hPa 0,0 l/m SW 0,00 h 143 W/m 4,6 km/h (1 Bft)
30.07.2015 18:00 19,1 C 47 % 1013,5 hPa 0,0 l/m W-SW 0,00 h 104 W/m 4,7 km/h (1 Bft)
30.07.2015 19:00 18,3 C 51 % 1013,8 hPa 0,0 l/m N-NO 0,00 h 41 W/m 8,6 km/h (2 Bft)
30.07.2015 20:00 17,1 C 60 % 1014,1 hPa 0,0 l/m N-NO 0,00 h 10 W/m 2,4 km/h (1 Bft)
30.07.2015 21:00 15,2 C 73 % 1014,8 hPa 0,0 l/m N 0,00 h 0 W/m 0,5 km/h (0 Bft)
30.07.2015 22:00 14,0 C 77 % 1015,4 hPa 0,0 l/m N 0,00 h 0 W/m 0,0 km/h (0 Bft)
30.07.2015 23:00 13,2 C 81 % 1015,8 hPa 0,0 l/m N 0,00 h 0 W/m 0,1 km/h (0 Bft)
31.07.2015 00:00 11,9 C 82 % 1016,0 hPa 0,0 l/m N-NO 0,00 h 0 W/m 1,2 km/h (1 Bft)
31.07.2015 01:00 11,7 C 80 % 1016,2 hPa 0,0 l/m N-NO 0,00 h 0 W/m 1,5 km/h (1 Bft)
31.07.2015 02:00 11,2 C 81 % 1016,3 hPa 0,0 l/m N-NO 0,00 h 0 W/m 3,9 km/h (1 Bft)
31.07.2015 03:00 11,1 C 81 % 1016,3 hPa 0,0 l/m N 0,00 h 0 W/m 0,3 km/h (0 Bft)
31.07.2015 04:00 10,4 C 85 % 1016,2 hPa 0,0 l/m N 0,00 h 0 W/m 0,0 km/h (0 Bft)
31.07.2015 05:00 9,7 C 89 % 1016,0 hPa 0,0 l/m N 0,00 h 0 W/m 1,1 km/h (0 Bft)
31.07.2015 06:00 9,8 C 87 % 1015,9 hPa 0,0 l/m N-NO 0,00 h 26 W/m 4,0 km/h (1 Bft)
31.07.2015 07:00 11,1 C 83 % 1016,0 hPa 0,0 l/m N-NO 0,42 h 131 W/m 1,2 km/h (1 Bft)
31.07.2015 08:00 13,3 C 74 % 1016,0 hPa 0,0 l/m N-NO 1,00 h 305 W/m 10,2 km/h (2 Bft)
31.07.2015 09:00 15,3 C 66 % 1015,9 hPa 0,0 l/m NO 1,00 h 477 W/m 12,8 km/h (3 Bft)
31.07.2015 10:00 17,3 C 58 % 1015,4 hPa 0,0 l/m O-NO 1,00 h 636 W/m 17,0 km/h (3 Bft)
31.07.2015 11:00 18,7 C 51 % 1014,9 hPa 0,0 l/m O 1,00 h 761 W/m 19,3 km/h (3 Bft)
31.07.2015 12:00 20,1 C 48 % 1014,6 hPa 0,0 l/m O-NO 1,00 h 846 W/m 19,2 km/h (3 Bft)
31.07.2015 13:00 21,0 C 44 % 1013,7 hPa 0,0 l/m O-SO 1,00 h 824 W/m 21,7 km/h (4 Bft)
31.07.2015 14:00 22,0 C 40 % 1013,1 hPa 0,0 l/m O 1,00 h 801 W/m 21,3 km/h (4 Bft)
31.07.2015 15:00 22,9 C 38 % 1012,6 hPa 0,0 l/m NO 1,00 h 812 W/m 19,7 km/h (3 Bft)
31.07.2015 16:00 23,4 C 36 % 1011,9 hPa 0,0 l/m O-SO 1,00 h 633 W/m 19,0 km/h (3 Bft)
31.07.2015 17:00 23,5 C 36 % 1011,6 hPa 0,0 l/m O-SO 0,83 h 441 W/m 19,8 km/h (4 Bft)
31.07.2015 18:00 22,6 C 38 % 1011,1 hPa 0,0 l/m O 0,33 h 189 W/m 16,8 km/h (3 Bft)
31.07.2015 19:00 21,3 C 44 % 1010,9 hPa 0,0 l/m NO 0,00 h 70 W/m 11,8 km/h (2 Bft)
31.07.2015 20:00 20,0 C 46 % 1010,9 hPa 0,0 l/m NO 0,00 h 18 W/m 7,9 km/h (2 Bft)
31.07.2015 21:00 18,6 C 50 % 1010,9 hPa 0,0 l/m NO 0,00 h 0 W/m 7,5 km/h (2 Bft)
31.07.2015 22:00 17,1 C 56 % 1010,9 hPa 0,0 l/m NO 0,00 h 0 W/m 2,7 km/h (1 Bft)
31.07.2015 23:00 16,2 C 61 % 1010,7 hPa 0,0 l/m NO 0,00 h 0 W/m 4,7 km/h (1 Bft)
01.08.2015 00:00 15,4 C 64 % 1010,8 hPa 0,0 l/m NO 0,00 h 0 W/m 1,1 km/h (0 Bft)
01.08.2015 01:00 15,3 C 66 % 1010,8 hPa 0,0 l/m N 0,00 h 0 W/m 1,6 km/h (1 Bft)
01.08.2015 02:00 15,1 C 67 % 1010,1 hPa 0,0 l/m N-NO 0,00 h 0 W/m 3,0 km/h (1 Bft)
01.08.2015 03:00 13,6 C 75 % 1010,0 hPa 0,0 l/m N 0,00 h 0 W/m 0,1 km/h (0 Bft)
01.08.2015 04:00 12,6 C 79 % 1009,9 hPa 0,0 l/m N-NO 0,00 h 0 W/m 1,1 km/h (0 Bft)
01.08.2015 05:00 12,9 C 78 % 1009,7 hPa 0,0 l/m N-NO 0,00 h 0 W/m 2,3 km/h (1 Bft)
01.08.2015 06:00 13,1 C 77 % 1009,9 hPa 0,0 l/m N-NO 0,00 h 10 W/m 3,9 km/h (1 Bft)
01.08.2015 07:00 13,3 C 77 % 1010,7 hPa 0,0 l/m N-NO 0,00 h 22 W/m 3,7 km/h (1 Bft)
01.08.2015 08:00 13,6 C 80 % 1012,0 hPa 0,0 l/m N-NW 0,00 h 32 W/m 1,9 km/h (1 Bft)
01.08.2015 09:00 13,4 C 89 % 1013,0 hPa 0,2 l/m SW 0,00 h 71 W/m 8,3 km/h (2 Bft)
01.08.2015 10:00 13,9 C 93 % 1013,3 hPa 0,4 l/m SW 0,00 h 67 W/m 9,9 km/h (2 Bft)
01.08.2015 11:00 14,0 C 95 % 1013,7 hPa 0,6 l/m S-SW 0,00 h 102 W/m 9,7 km/h (2 Bft)
01.08.2015 12:00 14,8 C 95 % 1013,7 hPa 0,2 l/m SW 0,00 h 231 W/m 10,3 km/h (2 Bft)
01.08.2015 13:00 16,1 C 90 % 1013,3 hPa 0,0 l/m S-SW 0,00 h 246 W/m 10,3 km/h (2 Bft)
01.08.2015 14:00 16,9 C 86 % 1013,0 hPa 0,0 l/m S-SW 0,08 h 295 W/m 10,2 km/h (2 Bft)
01.08.2015 15:00 18,3 C 79 % 1012,9 hPa 0,0 l/m SW 0,17 h 258 W/m 7,1 km/h (2 Bft)
01.08.2015 16:00 18,3 C 76 % 1012,9 hPa 0,0 l/m W-NW 0,00 h 205 W/m 2,3 km/h (1 Bft)
01.08.2015 17:00 18,3 C 76 % 1013,1 hPa 0,0 l/m W-NW 0,00 h 83 W/m 0,9 km/h (0 Bft)
01.08.2015 18:00 18,4 C 77 % 1013,0 hPa 0,0 l/m N 0,00 h 73 W/m 0,8 km/h (0 Bft)
01.08.2015 19:00 18,2 C 81 % 1013,2 hPa 0,0 l/m N 0,00 h 35 W/m 0,9 km/h (0 Bft)
01.08.2015 20:00 17,4 C 87 % 1013,6 hPa 0,0 l/m N 0,00 h 11 W/m 0,0 km/h (0 Bft)
01.08.2015 21:00 16,6 C 90 % 1014,5 hPa 0,0 l/m N 0,00 h 0 W/m 0,0 km/h (0 Bft)
01.08.2015 22:00 16,3 C 90 % 1015,0 hPa 0,0 l/m W-NW 0,00 h 0 W/m 1,3 km/h (1 Bft)
01.08.2015 23:00 16,4 C 90 % 1015,3 hPa 0,0 l/m N 0,00 h 0 W/m 0,0 km/h (0 Bft)
02.08.2015 00:00 16,3 C 90 % 1015,5 hPa 0,0 l/m N 0,00 h 0 W/m 0,0 km/h (0 Bft)
02.08.2015 01:00 15,9 C 92 % 1015,4 hPa 0,0 l/m N 0,00 h 0 W/m 0,0 km/h (0 Bft)
02.08.2015 02:00 15,4 C 94 % 1015,6 hPa 0,0 l/m N 0,00 h 0 W/m 0,0 km/h (0 Bft)
02.08.2015 03:00 15,3 C 95 % 1015,7 hPa 0,0 l/m N 0,00 h 0 W/m 0,0 km/h (0 Bft)
02.08.2015 04:00 15,0 C 96 % 1015,8 hPa 0,0 l/m N 0,00 h 0 W/m 0,0 km/h (0 Bft)
02.08.2015 05:00 15,0 C 96 % 1016,1 hPa 0,0 l/m N 0,00 h 0 W/m 0,0 km/h (0 Bft)
02.08.2015 06:00 14,9 C 97 % 1016,5 hPa 0,0 l/m N 0,00 h 9 W/m 0,0 km/h (0 Bft)
02.08.2015 07:00 15,0 C 97 % 1016,9 hPa 0,0 l/m N 0,00 h 43 W/m 0,0 km/h (0 Bft)
02.08.2015 08:00 16,0 C 95 % 1017,3 hPa 0,0 l/m N 0,08 h 113 W/m 0,0 km/h (0 Bft)
02.08.2015 09:00 17,8 C 87 % 1017,6 hPa 0,0 l/m W-NW 0,67 h 342 W/m 2,7 km/h (1 Bft)
02.08.2015 10:00 20,3 C 73 % 1017,7 hPa 0,0 l/m S-SW 0,92 h 565 W/m 6,6 km/h (2 Bft)
02.08.2015 11:00 20,6 C 69 % 1017,8 hPa 0,0 l/m S 0,42 h 419 W/m 4,9 km/h (1 Bft)
02.08.2015 12:00 22,2 C 61 % 1017,6 hPa 0,0 l/m SO 0,67 h 598 W/m 9,4 km/h (2 Bft)
02.08.2015 13:00 23,3 C 56 % 1017,2 hPa 0,0 l/m O-SO 0,50 h 633 W/m 12,0 km/h (2 Bft)
02.08.2015 14:00 24,3 C 51 % 1016,7 hPa 0,0 l/m SO 0,58 h 664 W/m 11,5 km/h (2 Bft)
02.08.2015 15:00 25,1 C 46 % 1016,1 hPa 0,0 l/m O-SO 0,67 h 590 W/m 15,6 km/h (3 Bft)
02.08.2015 16:00 25,1 C 47 % 1015,8 hPa 0,0 l/m O-SO 0,67 h 497 W/m 11,1 km/h (2 Bft)
02.08.2015 17:00 26,0 C 42 % 1015,7 hPa 0,0 l/m O-NO 1,00 h 530 W/m 10,2 km/h (2 Bft)
02.08.2015 18:00 25,8 C 42 % 1015,3 hPa 0,0 l/m O 1,00 h 357 W/m 10,5 km/h (2 Bft)
02.08.2015 19:00 24,8 C 47 % 1015,0 hPa 0,0 l/m O-SO 0,75 h 159 W/m 12,9 km/h (3 Bft)
02.08.2015 20:00 22,5 C 56 % 1015,1 hPa 0,0 l/m O-SO 0,08 h 16 W/m 6,6 km/h (2 Bft)
02.08.2015 21:00 19,7 C 67 % 1015,4 hPa 0,0 l/m N 0,00 h 0 W/m 0,4 km/h (0 Bft)
02.08.2015 22:00 16,8 C 80 % 1015,5 hPa 0,0 l/m N 0,00 h 0 W/m 0,0 km/h (0 Bft)
02.08.2015 23:00 15,8 C 84 % 1015,5 hPa 0,0 l/m N 0,00 h 0 W/m 0,1 km/h (0 Bft)
Min-Datum _ 30.07.15 31.07.15 27.07.15 - - - - 27.07.15
_ Min-Zeit 06:15 15:55 04:50 - - - - 06:45
Minimum _ 6,0 C 35 % 1005,1 hPa - - - - 0,0 km/h (0 Bft)
Max-Datum _ 02.08.15 27.07.15 02.08.15 29.07.15 - 27.07.15 27.07.15 27.07.15
_ Max-Zeit 17:00 07:50 10:50 11:00 - 07:45 14:25 15:05
Maximum _ 26,3 C 98 % 1017,9 hPa 1,4 l/m - 0,08 h 1074 W/m 51,5 km/h
W (7 Bft)
Durchschnitt _ 16,3 C 74 % 1011,5 hPa #6,8 l/m W-SW #36:15 h 290 W/m 10,6 km/h (2 Bft)